BIOMASS

Last updated on Mon Sep 07 2026 00:02:46 GMT+0000 (Coordinated Universal Time)

1 63772U 25090A 26249.51454328 .00000415 00000+0 82725-4 0 9993 2 63772 98.0762 75.6633 0001216 88.6448 271.4895 14.66977424 72619
UTC large
Height (km)
Speed (km/s)
/
Latitude / Longitude
Inclination (degrees)
Orbital Period (minutes)
Azimuth
Elevation
Range (km)
Doppler Factor

Next 0 passes for location: London (51.5072 / 0.1276)

No passes found over London.
BIOMASS